Location: Clairmont
(55.2667°N, 118.8000°W)
Time: 00:31:05
(UTC+00:00)

Envisat - Pass Details

Date: 01 November 2020
Orbit: 764 x 766 km, 98.1° (Epoch: 04 December)

Event Time Altitude Azimuth Distance (km) Brightness Sun altitude
Rises 12:12:30 0° 28° (NNE) 3,247 6.8 -24.3°
Reaches altitude 10° 12:16:42 10° 62° (ENE) 2,312 6.4 -23.7°
Maximum altitude 12:18:19 11° 81° (E) 2,214 6.5 -23.4°
Drops below altitude 10° 12:19:55 10° 99° (E) 2,307 6.5 -23.2°
Sets 12:24:05 0° 133° (SE) 3,225 6.8 -22.6°
